Regional Weather Roundup
Issued by NWS Sterling, VA

Home | Current Version | Previous Version | Graphics & Text | Print | Product List | Glossary On
Versions: 1 2 3 4 5 6 7 8 9 10 11 12 13 14 15 16 17 18 19 20 21 22 23 24 25 26 27 28 29 30 31 32 33 34 35 36 37 38 39 40 41 42 43 44 45 46 47 48 49 50
000
ASUS41 KLWX 241410
RWRLWX

REGIONAL WEATHER ROUNDUP
NATIONAL WEATHER SERVICE BALTIMORE MD/WASHINGTON DC
1000 AM EDT FRI MAR 24 2017

Note: "FAIR" indicates few or no clouds below 12,000 feet
with no significant weather and/or obstructions to visibility.
 TC=TEMPERATURE CELSIUS

 * =Non NWS site. Station does not report precipitation (e.g. rain,
    snow, etc.), thunder, or fog.

DCZ001-MDZ009-015-VAZ040>042-051-053>054-241500-
WASHINGTON METRO

CITY           SKY/WX    TMP DP  RH WIND       PRES   REMARKS
WASHINGTON NAT CLOUDY    41  29  62 S14       30.46F
DULLES         LGT RAIN  37  31  78 S9        30.44F
ANDREWS AFB    CLOUDY    41  25  53 S18       30.44F
FT BELVOIR     CLOUDY    41  29  64 S8        30.46F
QUANTICO       LGT RAIN  40  31  70 S15       30.49F
COLLEGE PARK*  CLOUDY    41  28  60 S5        30.45F
LEESBURG*      RAIN      37  36  93 S9        30.42F
MANASSAS*      LGT RAIN  40  33  76 SW7       30.46F
GAITHERSBURG*  PTSUNNY   39  27  60 S12       30.46F

$$

MDZ006>007-011-014-241500-
BALTIMORE METRO

CITY           SKY/WX    TMP DP  RH WIND       PRES   REMARKS
BWI AIRPORT    CLOUDY    42  26  53 SW10G18   30.44F
MD SCIENCE CTR   N/A     42  23  46 MISG      30.47F
MARTIN STATE   PTSUNNY   43  27  52 S10       30.47F
ANNAPOLIS      PTSUNNY   43  24  47 S9        30.46F
FORT MEADE*    CLOUDY    41  28  60 SW10G18   30.46F

$$

MDZ012-015-019>023-241500-
MARYLAND EASTERN SHORE

CITY           SKY/WX    TMP DP  RH WIND       PRES   REMARKS
OCEAN CITY     CLOUDY    46  30  53 SW14      30.51F
SALISBURY      CLOUDY    45  26  47 SW13      30.50S
BAY BRIDGE AP* CLOUDY    41  25  52 S12G20    30.47F
CAMBRIDGE*     SUNNY     45  25  45 SW10      30.50R

$$

MDZ017>025-241500-
SOUTHERN MARYLAND

CITY           SKY/WX    TMP DP  RH WIND       PRES   REMARKS
PATUXENT RIVER PTSUNNY   42  26  53 SW9       30.50S
ST INIGOES     CLOUDY    42  29  59 SW9       30.51R
LEONARDTOWN*   CLOUDY    41  27  56 SW7       30.51F

$$

MDZ003>005-241500-
NORTH CENTRAL MARYLAND

CITY           SKY/WX    TMP DP  RH WIND       PRES   REMARKS
FREDERICK*     DRIZZLE   39  36  87 S10       30.44F
HAGERSTOWN APT LGT RAIN  37  32  82 S9        30.36S
WESTMINSTER*   RAIN      39  34  81 S9        30.37F

$$

MDZ501>502-241500-
WESTERN MARYLAND

CITY           SKY/WX    TMP DP  RH WIND       PRES   REMARKS
OAKLAND*       CLOUDY    45  34  65 SW14G21   30.28S
CUMBERLAND*    MOSUNNY   36  34  93 CALM      30.37S

$$

VAZ025>031-241500-
SHENANDOAH VALLEY

CITY           SKY/WX    TMP DP  RH WIND       PRES   REMARKS
WINCHESTER*    LGT RAIN  36  34  93 SW5       30.37F
FRONT ROYAL*     N/A    N/A N/A N/A MISG        N/A
LURAY*         CLOUDY    41  37  87 SW5       30.40F
NEW MARKET*    CLOUDY    41  32  70 W6        30.38F
STAUNTON*      CLOUDY    43  26  51 S3        30.42F
WAYNESBORO*    CLOUDY    43  26  52 NE3       30.40F

$$

WVZ021-048>050-054>055-241500-
EASTERN WEST VIRGINIA PANHANDLE

CITY           SKY/WX    TMP DP  RH WIND       PRES   REMARKS
MARTINSBURG    LGT RAIN  36  33  89 S12       30.33F FOG     WCI  28
PETERSBURG*    CLOUDY    50  31  47 S9        30.35F

$$

VAZ036>039-050-241500-
CENTRAL FOOTHILLS

CITY           SKY/WX    TMP DP  RH WIND       PRES   REMARKS
CHARLOTTESVILL LGT RAIN  40  31  70 S6        30.45S
CULPEPER*      LGT RAIN  39  35  84 S7        30.47F
ORANGE*        RAIN      37  30  75 S8        30.47F
GORDONSVILLE*  CLOUDY    37  31  78 SW6       30.46F
WARRENTON*     LGT RAIN  40  31  71 SW6       30.45S

$$

VAZ055>057-241500-
NORTH AND CENTRAL PIEDMONT

CITY           SKY/WX    TMP DP  RH WIND       PRES   REMARKS
FREDERICKSBRG* CLOUDY    40  31  69 S7        30.49F
STAFFORD*      PTSUNNY   38  29  70 S9        30.51F

$$

NCZ024-NYZ072-PAZ021-071-VAZ022-071-241500-
OTHER REGIONAL OBSERVATIONS

CITY           SKY/WX    TMP DP  RH WIND       PRES   REMARKS
NEW YORK CITY  CLOUDY    42  24  49 VRB3      30.46S
PHILADELPHIA   PTSUNNY   43  24  47 S13       30.46F
PITTSBURGH     CLOUDY    50  37  61 SW13      30.21S
ROANOKE        CLOUDY    44  27  51 SE3       30.45S
RICHMOND       PTSUNNY   44  22  41 SW10      30.52R
RALEIGH        MOSUNNY   52  39  61 SW9       30.51S

$$

ANZ530>537-241500-
MARINE OBSERVATIONS

STATION/POSITION TIME  TEMP    WIND        PRES
                       AIR SEA DIR/SP/G
                 (UTC) (F)     (DEG/KT/KT) (MB)
THOMAS PT LIGHT  1400   40 43  200/ 17/ 19   N/A
BALT KEY BRIDGE  1342   39     190/  8/ 11 1031.2F
COVE POINT       1342   40     230/ 11/ 13 1033.5R
LEWISETTA        1342   42 45  250/  9/ 12 1032.8R
SOLOMONS ISLAND  1342   42 44  230/ 10/ 12   N/A
PINEY POINT      1342          270/  4/  6   N/A

$$




USA.gov is the U.S. government's official web portal to all federal, state and local government web resources and services.